This is the latest recevied weather packets stored in our database for station/object N5TSS. If no packets are shown the sender has not sent any weather packets the latest 1 day(s).
| Time | Temp. | Humidity | Pressure | Rain* | Wind** | Luminosity | Snow |
|---|---|---|---|---|---|---|---|
| 1778025446 | 27.22° C | 76% | 1007.8 hPa | 0 mm | 1.34 m/s, 171° | - | - |
| 1778025144 | 27.22° C | 76% | 1007.8 hPa | 0 mm | 1.79 m/s, 193° | - | - |
| 1778024840 | 27.22° C | 76% | 1007.8 hPa | 0 mm | 1.79 m/s, 144° | - | - |
| 1778024538 | 27.22° C | 76% | 1007.8 hPa | 0 mm | 1.79 m/s, 144° | - | - |
| 1778024234 | 27.22° C | 75% | 1007.8 hPa | 0 mm | 1.34 m/s, 135° | - | - |
| 1778023932 | 27.78° C | 74% | 1007.8 hPa | 0 mm | 0.89 m/s, 182° | - | - |
| 1778023629 | 27.78° C | 74% | 1007.8 hPa | 0 mm | 1.34 m/s, 165° | - | - |
| 1778023327 | 27.78° C | 74% | 1007.4 hPa | 0 mm | 1.34 m/s, 195° | - | - |
| 1778023023 | 27.78° C | 73% | 1007.4 hPa | 0 mm | 0.89 m/s, 132° | - | - |
| 1778022722 | 27.78° C | 73% | 1007.8 hPa | 0 mm | 2.24 m/s, 167° | - | - |
| 1778022420 | 27.78° C | 73% | 1007.8 hPa | 0 mm | 2.68 m/s, 147° | - | - |
| 1778022116 | 27.78° C | 72% | 1007.8 hPa | 0 mm | 2.24 m/s, 163° | - | - |
| 1778021812 | 27.78° C | 73% | 1007.4 hPa | 0 mm | 2.68 m/s, 164° | - | - |
| 1778021509 | 27.78° C | 73% | 1007.8 hPa | 0 mm | 2.24 m/s, 201° | - | - |
| 1778021205 | 28.33° C | 73% | 1007.8 hPa | 0 mm | 2.24 m/s, 176° | - | - |
| 1778020903 | 28.33° C | 72% | 1007.8 hPa | 0 mm | 1.34 m/s, 167° | - | - |
| 1778020601 | 28.33° C | 72% | 1007.8 hPa | 0 mm | 0.45 m/s, 95° | - | - |
| 1778020296 | 27.78° C | 72% | 1007.8 hPa | 0 mm | 1.79 m/s, 182° | - | - |
| 1778019992 | 27.78° C | 72% | 1007.4 hPa | 0 mm | 2.68 m/s, 151° | - | - |
| 1778019689 | 28.33° C | 71% | 1007.4 hPa | 0 mm | 1.34 m/s, 148° | - | - |
| 1778019386 | 28.33° C | 71% | 1007.4 hPa | 0 mm | 1.79 m/s, 175° | - | - |
| 1778019082 | 28.33° C | 72% | 1007.4 hPa | 0 mm | 1.79 m/s, 152° | - | - |
| 1778018780 | 28.33° C | 72% | 1007.4 hPa | 0 mm | 2.24 m/s, 173° | - | - |
| 1778018478 | 28.33° C | 72% | 1007.4 hPa | 0 mm | 1.79 m/s, 183° | - | - |
| 1778018175 | 28.89° C | 71% | 1007.8 hPa | 0 mm | 3.13 m/s, 202° | - | - |
* Rain latest hour (hover to see other rain measurements)
** Current wind speed in m/s (hover to see current wind gust speed)